Meteo pe oră la Bolshie Kabany

Astăzi, 10 Mai, Luni

Timp Temperatura Precipitaţii Vânt Presiune Umiditate
00:00 +14°C° 0 mm 3 m/s 752 mmHg 76%
01:00 +14°C° 0.1 mm 3 m/s 752 mmHg 78%
02:00 +14°C° 0.1 mm 3 m/s 752 mmHg 80%
03:00 +13°C° 0.1 mm 3 m/s 752 mmHg 83%
04:00 +15°C° 0.2 mm 2 m/s 753 mmHg 82%
05:00 +15°C° 0.2 mm 2 m/s 754 mmHg 81%
06:00 +16°C° 0.2 mm 1 m/s 754 mmHg 81%
07:00 +17°C° 0 mm 2 m/s 754 mmHg 73%
08:00 +18°C° 0 mm 2 m/s 755 mmHg 66%
09:00 +20°C° 0 mm 3 m/s 755 mmHg 58%
10:00 +21°C° 0 mm 3 m/s 755 mmHg 55%
11:00 +22°C° 0 mm 3 m/s 756 mmHg 51%
12:00 +24°C° 0 mm 3 m/s 756 mmHg 48%
13:00 +24°C° 0 mm 3 m/s 756 mmHg 47%
14:00 +25°C° 0 mm 3 m/s 756 mmHg 45%
15:00 +25°C° 0 mm 2 m/s 757 mmHg 44%
16:00 +24°C° 0 mm 2 m/s 757 mmHg 48%
17:00 +24°C° 0 mm 2 m/s 757 mmHg 52%
18:00 +23°C° 0 mm 1 m/s 757 mmHg 56%
19:00 +21°C° 0 mm 2 m/s 758 mmHg 61%
20:00 +19°C° 0 mm 2 m/s 758 mmHg 65%
21:00 +17°C° 0 mm 2 m/s 758 mmHg 70%
22:00 +16°C° 0 mm 3 m/s 759 mmHg 75%
23:00 +16°C° 0 mm 3 m/s 759 mmHg 80%

Mâine, 11 Mai, Marţi

Timp Temperatura Precipitaţii Vânt Presiune Umiditate
00:00 +14°C° 0 mm 3 m/s 759 mmHg 85%
01:00 +14°C° 0 mm 3 m/s 759 mmHg 84%
02:00 +13°C° 0 mm 3 m/s 759 mmHg 82%
03:00 +13°C° 0 mm 3 m/s 759 mmHg 81%
04:00 +14°C° 0 mm 3 m/s 760 mmHg 80%
05:00 +15°C° 0 mm 2 m/s 760 mmHg 80%
06:00 +16°C° 0 mm 2 m/s 760 mmHg 79%
07:00 +17°C° 0 mm 3 m/s 761 mmHg 72%
08:00 +19°C° 0 mm 3 m/s 761 mmHg 64%
09:00 +21°C° 0 mm 3 m/s 761 mmHg 57%
10:00 +22°C° 0 mm 3 m/s 761 mmHg 53%
11:00 +24°C° 0 mm 3 m/s 761 mmHg 49%
12:00 +25°C° 0 mm 3 m/s 761 mmHg 45%
13:00 +25°C° 0 mm 3 m/s 761 mmHg 43%
14:00 +26°C° 0 mm 3 m/s 761 mmHg 41%
15:00 +26°C° 0 mm 3 m/s 761 mmHg 39%
16:00 +25°C° 0 mm 2 m/s 761 mmHg 43%
17:00 +24°C° 0 mm 2 m/s 761 mmHg 47%
18:00 +24°C° 0 mm 2 m/s 762 mmHg 51%
19:00 +21°C° 0 mm 2 m/s 762 mmHg 54%
20:00 +20°C° 0 mm 2 m/s 762 mmHg 57%
21:00 +18°C° 0 mm 2 m/s 762 mmHg 59%
22:00 +17°C° 0 mm 2 m/s 762 mmHg 63%
23:00 +17°C° 0 mm 2 m/s 762 mmHg 66%

Poimâine, 12 Mai, Miercuri

Timp Temperatura Precipitaţii Vânt Presiune Umiditate
00:00 +16°C° 0 mm 2 m/s 762 mmHg 70%
01:00 +16°C° 0 mm 2 m/s 762 mmHg 71%
02:00 +15°C° 0 mm 2 m/s 762 mmHg 72%
03:00 +15°C° 0 mm 2 m/s 762 mmHg 74%
04:00 +15°C° 0 mm 2 m/s 762 mmHg 73%
05:00 +16°C° 0 mm 2 m/s 763 mmHg 73%
06:00 +16°C° 0 mm 2 m/s 763 mmHg 72%
07:00 +18°C° 0 mm 3 m/s 763 mmHg 66%
08:00 +20°C° 0 mm 3 m/s 763 mmHg 60%
09:00 +21°C° 0 mm 4 m/s 763 mmHg 54%
10:00 +22°C° 0 mm 4 m/s 763 mmHg 50%
11:00 +23°C° 0 mm 4 m/s 763 mmHg 45%
12:00 +25°C° 0 mm 4 m/s 763 mmHg 41%
13:00 +25°C° 0 mm 4 m/s 763 mmHg 39%
14:00 +26°C° 0 mm 4 m/s 763 mmHg 37%
15:00 +26°C° 0 mm 3 m/s 762 mmHg 35%
16:00 +25°C° 0 mm 3 m/s 762 mmHg 40%
17:00 +24°C° 0 mm 2 m/s 762 mmHg 45%
18:00 +23°C° 0 mm 2 m/s 762 mmHg 50%
19:00 +21°C° 0 mm 2 m/s 762 mmHg 51%
20:00 +19°C° 0 mm 2 m/s 762 mmHg 52%
21:00 +18°C° 0 mm 2 m/s 762 mmHg 53%
22:00 +17°C° 0 mm 2 m/s 762 mmHg 55%
23:00 +17°C° 0 mm 2 m/s 762 mmHg 57%

13 Mai, Joi

Timp Temperatura Precipitaţii Vânt Presiune Umiditate
00:00 +16°C° 0 mm 1 m/s 762 mmHg 59%
01:00 +16°C° 0 mm 1 m/s 762 mmHg 62%
02:00 +15°C° 0 mm 1 m/s 762 mmHg 65%
03:00 +15°C° 0 mm 1 m/s 762 mmHg 67%
04:00 +16°C° 0 mm 1 m/s 762 mmHg 67%
05:00 +17°C° 0 mm 2 m/s 762 mmHg 67%
06:00 +17°C° 0 mm 2 m/s 762 mmHg 66%
07:00 +19°C° 0 mm 2 m/s 762 mmHg 61%
08:00 +20°C° 0 mm 3 m/s 762 mmHg 56%
09:00 +22°C° 0 mm 4 m/s 762 mmHg 51%
10:00 +23°C° 0 mm 4 m/s 762 mmHg 46%
11:00 +25°C° 0 mm 4 m/s 762 mmHg 42%
12:00 +26°C° 0 mm 4 m/s 762 mmHg 38%
13:00 +26°C° 0 mm 4 m/s 762 mmHg 37%
14:00 +26°C° 0 mm 4 m/s 762 mmHg 36%
15:00 +26°C° 0 mm 4 m/s 761 mmHg 36%
16:00 +25°C° 0 mm 3 m/s 761 mmHg 41%
17:00 +25°C° 0 mm 3 m/s 761 mmHg 46%
18:00 +24°C° 0 mm 2 m/s 761 mmHg 51%
19:00 +21°C° 0 mm 2 m/s 761 mmHg 53%
20:00 +20°C° 0 mm 2 m/s 761 mmHg 55%
21:00 +18°C° 0 mm 2 m/s 761 mmHg 57%
22:00 +18°C° 0 mm 2 m/s 761 mmHg 59%
23:00 +17°C° 0 mm 2 m/s 761 mmHg 61%

14 Mai, Vineri

Timp Temperatura Precipitaţii Vânt Presiune Umiditate
00:00 +17°C° 0 mm 2 m/s 761 mmHg 63%
01:00 +16°C° 0 mm 2 m/s 761 mmHg 64%
02:00 +16°C° 0 mm 2 m/s 761 mmHg 65%
03:00 +15°C° 0 mm 2 m/s 761 mmHg 66%
04:00 +16°C° 0 mm 2 m/s 761 mmHg 66%
05:00 +17°C° 0 mm 2 m/s 761 mmHg 65%
06:00 +17°C° 0 mm 2 m/s 761 mmHg 65%
07:00 +19°C° 0 mm 2 m/s 761 mmHg 59%
08:00 +21°C° 0 mm 3 m/s 761 mmHg 53%
09:00 +22°C° 0 mm 4 m/s 761 mmHg 48%
10:00 +23°C° 0 mm 4 m/s 761 mmHg 45%
11:00 +25°C° 0 mm 4 m/s 761 mmHg 42%
12:00 +26°C° 0 mm 4 m/s 761 mmHg 38%
13:00 +27°C° 0 mm 4 m/s 760 mmHg 37%
14:00 +27°C° 0 mm 4 m/s 760 mmHg 36%
15:00 +27°C° 0 mm 4 m/s 760 mmHg 35%
16:00 +26°C° 0 mm 4 m/s 760 mmHg 41%
17:00 +25°C° 0 mm 3 m/s 759 mmHg 47%
18:00 +24°C° 0 mm 2 m/s 759 mmHg 53%
19:00 +23°C° 0 mm 2 m/s 759 mmHg 54%
20:00 +20°C° 0 mm 2 m/s 759 mmHg 55%
21:00 +19°C° 0 mm 2 m/s 759 mmHg 57%
22:00 +18°C° 0 mm 2 m/s 759 mmHg 58%
23:00 +18°C° 0 mm 2 m/s 758 mmHg 60%

15 Mai, Sâmbătă

Timp Temperatura Precipitaţii Vânt Presiune Umiditate
00:00 +17°C° 0 mm 2 m/s 758 mmHg 61%
01:00 +17°C° 0 mm 2 m/s 758 mmHg 62%
02:00 +16°C° 0 mm 2 m/s 758 mmHg 62%
03:00 +16°C° 0 mm 2 m/s 758 mmHg 63%
04:00 +17°C° 0 mm 2 m/s 758 mmHg 63%
05:00 +17°C° 0 mm 2 m/s 758 mmHg 64%
06:00 +18°C° 0 mm 2 m/s 758 mmHg 64%
07:00 +20°C° 0 mm 3 m/s 758 mmHg 58%
08:00 +22°C° 0 mm 3 m/s 758 mmHg 53%
09:00 +25°C° 0 mm 4 m/s 758 mmHg 47%
10:00 +26°C° 0 mm 4 m/s 758 mmHg 44%
11:00 +27°C° 0 mm 5 m/s 757 mmHg 41%
12:00 +28°C° 0 mm 5 m/s 757 mmHg 38%
13:00 +28°C° 0 mm 5 m/s 757 mmHg 37%
14:00 +28°C° 0 mm 5 m/s 757 mmHg 36%
15:00 +28°C° 0 mm 5 m/s 757 mmHg 35%
16:00 +27°C° 0 mm 4 m/s 756 mmHg 41%
17:00 +26°C° 0 mm 3 m/s 756 mmHg 46%
18:00 +25°C° 0 mm 3 m/s 756 mmHg 52%
19:00 +22°C° 0 mm 3 m/s 755 mmHg 53%
20:00 +21°C° 0 mm 3 m/s 755 mmHg 55%
21:00 +19°C° 0 mm 3 m/s 755 mmHg 56%
22:00 +19°C° 0 mm 2 m/s 755 mmHg 56%
23:00 +18°C° 0 mm 2 m/s 755 mmHg 57%
Arată mai mult

Formular de consimțământ

Meteoprog și furnizorii noștri de servicii pot stoca și accesa date personale, precum cookies, identificatori de dispozitiv sau alte tehnologii similare pe dispozitivul dumneavoastră și procesa astfel de date pentru a personaliza conținutul și reclamele, dar și pentru a oferi caracteristici de social media și pentru a analiza traficul.

  • Stocarea și/sau accesarea informațiilor pe dispozitivul dumneavoastră

    Cookies, identificatori de dispozitiv sau alte informații pot fi stocate sau accesate pe dispozitiv în scopurile indicate mai sus.

  • Reclame și conținut personalizat, evaluarea reclamelor și a conținutului, informații despre audiențe și dezvoltarea produselor

    Reclamele și conținutul pot fi personalizate pe baza unui profil. Pot fi adăugate date suplimentare pentru a personaliza mai bine reclamele și conținutul. Performanța reclamelor și conținutului poate fi măsurată. Pot fi obținute informații despre utilizatorii care au văzut reclamele și conținutul. Aceste date pot fi utilizate pentru a dezvolta sau îmbunătăți experiența utilizatorilor, sistemele și software-ul.

Dând clic pe ‘Sunt de acord’, permiteți utilizarea cookie-urilor menționate, a identificatorilor de dispozitiv, balizelor web sau altor tehnologii similare. Setările pot fi modificate din browser-ul dispozitivului dumneavoastră.

În anumite scopuri, interesele legitime pot prima asupra consimțământului. Puteți citi mai multe informații în acest sens în Politica privind Confidențialitatea Datelor și Cookie.